Time,TemperatureF,DewpointF,PressureIn,WindDirection,WindDirectionDegrees,WindSpeedMPH,WindSpeedGustMPH,Humidity,HourlyPrecipIn,Conditions,Clouds,dailyrainin,SoftwareType,DateUTC
2015-06-03 00:03:00,60.0,55.0,30.10,East,98,0.0,1.0,84,-99.99,,,-99.99,,2015-06-03 04:03:00,
2015-06-03 00:12:00,60.0,55.0,30.10,East,98,0.0,1.0,84,-99.99,,,-99.99,,2015-06-03 04:12:00,
2015-06-03 00:21:00,60.0,55.0,30.09,East,98,0.0,0.0,85,-99.99,,,-99.99,,2015-06-03 04:21:00,
2015-06-03 00:51:00,59.0,55.0,30.08,East,98,0.0,0.0,86,-99.99,,,-99.99,,2015-06-03 04:51:00,
2015-06-03 01:31:00,57.0,54.0,30.08,East,98,0.0,0.0,89,-99.99,,,-99.99,,2015-06-03 05:31:00,
2015-06-03 01:42:00,56.0,53.0,30.07,East,98,0.0,0.0,90,-99.99,,,-99.99,,2015-06-03 05:42:00,
2015-06-03 03:21:00,54.0,52.0,30.06,East,98,0.0,0.0,93,-99.99,,,-99.99,,2015-06-03 07:21:00,
2015-06-03 04:11:00,53.0,52.0,30.05,East,98,0.0,0.0,95,-99.99,,,-99.99,,2015-06-03 08:11:00,
2015-06-03 04:21:00,53.0,52.0,30.04,East,98,0.0,0.0,95,-99.99,,,-99.99,,2015-06-03 08:21:00,
2015-06-03 04:32:00,53.0,52.0,30.05,East,98,0.0,0.0,95,-99.99,,,-99.99,,2015-06-03 08:32:00,
2015-06-03 04:43:00,53.0,52.0,30.05,East,98,0.0,0.0,96,-99.99,,,-99.99,,2015-06-03 08:43:00,
2015-06-03 05:21:00,53.0,52.0,30.04,East,98,0.0,0.0,96,-99.99,,,-99.99,,2015-06-03 09:21:00,
2015-06-03 05:31:00,53.0,52.0,30.04,East,98,0.0,0.0,96,-99.99,,,-99.99,,2015-06-03 09:31:00,
2015-06-03 05:52:00,53.0,52.0,30.04,East,98,0.0,0.0,97,-99.99,,,-99.99,,2015-06-03 09:52:00,
2015-06-03 06:03:00,54.0,53.0,30.04,East,98,0.0,0.0,96,-99.99,,,-99.99,,2015-06-03 10:03:00,
2015-06-03 06:11:00,54.0,53.0,30.05,East,98,0.0,0.0,96,-99.99,,,-99.99,,2015-06-03 10:11:00,
2015-06-03 06:51:00,54.0,53.0,30.06,North,9,1.0,3.0,96,-99.99,,,-99.99,,2015-06-03 10:51:00,
2015-06-03 07:03:00,55.0,54.0,30.06,North,355,0.0,2.0,96,-99.99,,,-99.99,,2015-06-03 11:03:00,
2015-06-03 07:12:00,55.0,54.0,30.06,NNW,340,0.0,0.0,96,-99.99,,,-99.99,,2015-06-03 11:12:00,
2015-06-03 08:21:00,56.0,55.0,30.07,North,360,0.0,0.0,95,-99.99,,,-99.99,,2015-06-03 12:21:00,
2015-06-03 08:32:00,56.0,55.0,30.07,North,360,0.0,0.0,95,-99.99,,,-99.99,,2015-06-03 12:32:00,
2015-06-03 08:42:00,56.0,55.0,30.07,North,360,0.0,0.0,95,-99.99,,,-99.99,,2015-06-03 12:42:00,
2015-06-03 08:52:00,57.0,56.0,30.08,North,360,0.0,0.0,95,-99.99,,,-99.99,,2015-06-03 12:52:00,
2015-06-03 09:02:00,57.0,55.0,30.07,North,360,0.0,0.0,94,-99.99,,,-99.99,,2015-06-03 13:02:00,
2015-06-03 09:11:00,58.0,56.0,30.07,North,360,0.0,0.0,94,-99.99,,,-99.99,,2015-06-03 13:11:00,
2015-06-03 09:21:00,58.0,56.0,30.07,North,360,0.0,0.0,93,-99.99,,,-99.99,,2015-06-03 13:21:00,
2015-06-03 09:31:00,59.0,57.0,30.07,North,355,0.0,0.0,93,-99.99,,,-99.99,,2015-06-03 13:31:00,
2015-06-03 09:41:00,60.0,57.0,30.07,NNW,342,0.0,0.0,90,-99.99,,,-99.99,,2015-06-03 13:41:00,
2015-06-03 09:51:00,61.0,58.0,30.07,NNW,342,0.0,0.0,89,-99.99,,,-99.99,,2015-06-03 13:51:00,
2015-06-03 10:11:00,62.0,58.0,30.07,NNE,32,0.0,0.0,87,-99.99,,,-99.99,,2015-06-03 14:11:00,
2015-06-03 10:21:00,62.0,58.0,30.07,NE,46,0.0,0.0,86,-99.99,,,-99.99,,2015-06-03 14:21:00,
2015-06-03 11:03:00,63.0,58.0,30.06,SE,125,0.0,0.0,83,-99.99,,,-99.99,,2015-06-03 15:03:00,
2015-06-03 11:11:00,64.0,59.0,30.06,East,79,0.0,0.0,83,-99.99,,,-99.99,,2015-06-03 15:11:00,
2015-06-03 11:22:00,64.0,58.0,30.06,ESE,103,0.0,0.0,81,-99.99,,,-99.99,,2015-06-03 15:22:00,
2015-06-03 11:32:00,65.0,58.0,30.06,East,80,1.0,2.0,78,-99.99,,,-99.99,,2015-06-03 15:32:00,
2015-06-03 12:02:00,66.0,59.0,30.06,NE,41,0.0,2.0,77,-99.99,,,-99.99,,2015-06-03 16:02:00,
2015-06-03 12:13:00,66.0,58.0,30.06,NNE,26,0.0,2.0,76,-99.99,,,-99.99,,2015-06-03 16:13:00,
2015-06-03 12:21:00,66.0,59.0,30.06,ENE,78,0.0,3.0,78,-99.99,,,-99.99,,2015-06-03 16:21:00,
2015-06-03 12:54:00,65.0,58.0,30.06,East,94,1.0,2.0,78,-99.99,,,-99.99,,2015-06-03 16:54:00,
2015-06-03 13:02:00,65.0,58.0,30.06,South,187,1.0,3.0,79,-99.99,,,-99.99,,2015-06-03 17:02:00,